Tracking 18852 objects as of 24-Nov-2017
HD Live streaming from Space Station
objects crossing your sky now

CZ-3B DEB

Track CZ-3B DEB now!


NORAD ID: 42461
Int'l Code: 2010-042AC
Perigee: 1,363.9 km
Apogee: 43,406.6 km
Inclination: 23.4 °
Period: 808.8 minutes
Semi major axis: 28756 km
RCS: Unknown
Launch date: September 4, 2010
Source: People's Republic of China (PRC)
Launch site: Xichang Space Center, China (XSC)

Note: This is SATELLITE DEBRIS
aabbcc
Your satellite tracking list
Your tracking list is empty




NASA's NSSDC Master Catalog

Two Line Element Set (TLE):
1 42461U 10042AC  17323.45231498 -.00000114  00000-0  00000+0 0  9992
2 42461  23.4349 349.1842 7310187 144.7902 298.3404  1.78034454 23673
Source of the keplerian elements: AFSPC